Visibility
15.0 15.0 15.0 15.0 15.0 15.0 15.0 15.0 2.1 2.3 5.0 15.0 15.0 15.0 15.0 15.0 15.0 15.0 15.0 15.0 15.0 15.0 15.0 15.0 15.0 15.0 15.0 15.0 15.0 15.0 15.0 15.0 15.0 15.0 15.0 15.0 15.0 15.0
15.0 15.0 15.0 15.0 15.0 15.0 15.0 15.0 15.0 13.5 9.4 15.0 15.0 15.0 15.0 15.0 15.0 15.0 15.0 15.0 15.0 15.0 15.0 15.0 15.0 15.0 15.0 15.0 15.0 15.0 15.0 15.0 15.0 15.0 15.0 15.0 15.0 15.0
15.0 15.0 15.0 15.0 15.0 15.0 15.0 15.0 14.8 0.2 2.6 15.0 15.0 15.0 15.0 15.0 15.0 15.0 15.0 15.0 15.0 15.0 15.0 15.0 15.0 15.0 15.0 15.0 15.0 15.0 15.0 15.0 15.0 15.0 15.0 15.0 15.0 13.6
15.0 15.0 15.0 15.0 15.0 15.0 15.0 15.0 15.0 15.0 15.0 15.0 15.0 15.0 15.0 15.0 15.0 15.0 15.0 15.0 15.0 15.0 15.0 15.0 15.0 15.0 15.0 15.0 15.0 15.0 15.0 15.0 15.0 15.0 15.0 15.0 15.0 15.0
15.0 15.0 15.0 15.0 15.0 15.0 15.0 15.0 15.0 15.0 15.0 15.0 15.0 15.0 15.0 15.0 15.0 15.0 15.0 15.0 15.0 15.0 15.0 15.0 15.0 15.0 15.0 15.0 15.0 15.0 15.0 15.0 15.0 15.0 15.0 15.0 15.0 15.0
15.0 15.0 15.0 15.0 15.0 15.0 15.0 15.0 15.0 15.0 15.0 15.0 15.0 15.0 15.0 15.0 15.0 15.0 15.0 15.0 15.0 15.0 15.0 15.0 15.0 15.0 15.0 15.0 15.0 15.0 15.0 15.0 15.0 15.0 15.0 15.0 15.0 15.0
15.0 15.0 15.0 15.0 15.0 15.0 15.0 15.0 15.0 15.0 15.0 15.0 15.0 15.0 15.0 15.0 15.0 15.0 15.0 15.0 15.0 15.0 15.0 15.0 15.0 15.0 15.0 15.0 15.0 15.0 15.0 15.0 15.0 15.0 15.0 15.0 15.0 15.0
15.0 15.0 15.0 15.0 15.0 15.0 15.0 15.0 15.0 15.0 15.0 15.0 15.0 15.0 15.0 15.0 15.0 15.0 15.0 12.2 6.8 15.0 15.0 15.0 15.0 15.0 15.0 15.0 15.0 15.0 15.0 15.0 15.0 15.0 15.0 15.0 15.0 15.0
15.0 15.0 15.0 15.0 15.0 15.0 15.0 15.0 15.0 15.0 15.0 15.0 15.0 15.0 15.0 15.0 15.0 15.0 15.0 9.0 8.5 15.0 15.0 14.5 15.0 15.0 15.0 15.0 15.0 15.0 15.0 15.0 15.0 15.0 15.0 15.0 15.0 15.0
15.0 15.0 15.0 15.0 15.0 15.0 15.0 15.0 15.0 15.0 15.0 15.0 15.0 15.0 15.0 15.0 15.0 15.0 15.0 12.5 15.0 15.0 15.0 2.1 15.0 15.0 15.0 15.0 15.0 15.0 15.0 15.0 15.0 15.0 15.0 15.0 15.0 15.0
15.0 15.0 15.0 15.0 15.0 15.0 15.0 15.0 15.0 15.0 15.0 15.0 15.0 15.0 15.0 15.0 15.0 15.0 15.0 15.0 9.0 15.0 15.0 12.4 15.0 15.0 15.0 15.0 15.0 15.0 15.0 15.0 15.0 15.0 15.0 15.0 15.0 15.0
15.0 15.0 15.0 15.0 15.0 15.0 14.4 15.0 15.0 15.0 15.0 15.0 15.0 15.0 15.0 15.0 15.0 15.0 15.0 15.0 14.3 14.5 15.0 15.0 15.0 8.0 12.4 15.0 15.0 15.0 15.0 15.0 15.0 15.0 15.0 15.0 14.6 2.9
15.0 15.0 15.0 15.0 15.0 15.0 15.0 14.3 15.0 15.0 15.0 15.0 15.0 15.0 15.0 15.0 15.0 15.0 15.0 15.0 15.0 15.0 15.0 2.5 7.1 12.7 7.6 14.3 15.0 15.0 15.0 15.0 15.0 15.0 15.0 5.1 15.0 4.8
15.0 15.0 15.0 15.0 15.0 15.0 11.3 3.5 15.0 15.0 15.0 9.0 8.3 9.8 15.0 15.0 15.0 15.0 15.0 15.0 15.0 15.0 15.0 14.5 0.1 4.6 1.6 1.6 14.4 15.0 15.0 15.0 15.0 15.0 15.0 4.4 15.0 15.0
15.0 15.0 15.0 15.0 0.1 0.1 2.0 0.1 0.3 1.8 2.2 0.3 1.5 11.8 15.0 15.0 15.0 15.0 15.0 15.0 15.0 15.0 15.0 15.0 11.5 14.6 0.5 0.4 0.9 8.6 3.4 15.0 15.0 10.6 15.0 0.1 0.3 15.0
15.0 15.0 15.0 15.0 8.7 6.4 0.4 0.3 0.1 0.1 2.6 0.4 4.1 15.0 15.0 15.0 15.0 15.0 15.0 15.0 15.0 15.0 15.0 15.0 15.0 15.0 5.9 15.0 9.5 2.2 11.1 0.1 1.3 0.2 0.1 12.0 15.0 15.0
8.7 0.4 0.4 1.3 0.6 2.5 1.4 1.2 0.4 0.1 0.1 0.8 1.1 14.3 15.0 15.0 15.0 15.0 15.0 15.0 13.1 15.0 15.0 15.0 15.0 15.0 15.0 15.0 5.9 8.5 0.5 4.6 0.2 0.2 0.3 13.9 11.4 15.0
0.1 0.1 3.8 4.3 4.9 9.2 4.2 1.4 1.1 0.3 0.1 0.1 11.4 15.0 7.1 15.0 15.0 15.0 15.0 15.0 15.0 15.0 15.0 15.0 15.0 15.0 15.0 15.0 15.0 0.7 0.8 0.3 0.2 0.1 0.7 0.4 0.2 1.6
0.0 0.1 0.7 5.8 15.0 10.0 7.4 0.4 0.6 2.2 1.0 0.6 15.0 15.0 1.7 15.0 14.7 15.0 15.0 15.0 15.0 15.0 15.0 15.0 15.0 15.0 3.1 4.1 15.0 0.5 0.2 1.5 2.0 14.7 0.5 0.2 0.1 0.5
0.3 0.2 0.2 1.8 0.1 0.4 0.2 0.1 0.1 0.1 0.2 6.6 15.0 15.0 15.0 15.0 15.0 15.0 15.0 10.8 15.0 15.0 15.0 15.0 15.0 15.0 0.3 1.3 0.5 15.0 3.2 0.4 2.5 0.4 4.4 1.9 2.7 2.3
0.1 0.5 2.5 0.1 0.1 2.3 1.2 0.2 0.1 0.1 0.3 5.6 12.1 12.4 15.0 15.0 15.0 10.5 15.0 5.5 1.1 15.0 15.0 15.0 15.0 15.0 3.2 0.1 0.2 0.8 0.4 2.6 3.0 0.5 1.1 1.4 0.5 4.6
0.1 0.2 0.2 0.2 0.2 0.1 0.1 0.2 0.1 0.1 0.1 2.3 14.6 15.0 14.5 2.2 8.7 10.2 6.6 15.0 15.0 15.0 15.0 15.0 15.0 15.0 3.1 0.3 0.2 0.2 0.1 1.3 15.0 0.7 0.5 0.1 0.1 0.2
0.3 0.4 0.1 0.5 0.2 0.1 0.1 0.1 0.1 0.1 0.1 0.3 12.5 12.9 7.4 2.8 5.3 10.5 15.0 15.0 15.0 15.0 15.0 15.0 15.0 15.0 15.0 1.5 0.5 0.2 0.2 0.3 9.2 15.0 10.9 0.5 0.2 0.1